CW3518 Weather Reports


time (UTC)temp
F
wind
direction
speed
knots
gust
knots
rain 1hr
in
rain 24hr
in
rain mn
in
humidity
%
barometer
mb
20260504233501 79 183 11.3 16.5 0.00 0.00 0.00 59 1005.5
20260504233000 79 192 9.6 17.4 0.00 0.00 0.00 59 1005.7
20260504232500 79 199 14.8 17.4 0.00 0.00 0.00 58 1005.6
20260504231531 80 182 11.3 19.1 0.00 0.00 0.00 59 1005.6
20260504230500 80 180 13.9 16.5 0.00 0.00 0.00 57 1005.4
20260504230000 80 183 10.4 18.2 0.00 0.00 0.00 57 1005.6
20260504225500 80 192 10.4 24.3 0.00 0.00 0.00 57 1005.7
20260504224500 82 199 15.6 20.0 0.00 0.00 0.00 55 1005.8
20260504224000 81 196 13.0 20.9 0.00 0.00 0.00 55 1005.7
20260504223501 82 203 19.1 20.9 0.00 0.00 0.00 54 1005.7
20260504223000 82 190 13.0 20.0 0.00 0.00 0.00 55 1005.9
20260504222500 81 193 12.2 20.0 0.00 0.00 0.00 54 1005.9
20260504222000 81 198 12.2 21.7 0.00 0.00 0.00 55 1006.1
20260504221500 81 188 14.8 21.7 0.00 0.00 0.00 54 1005.9
20260504221000 82 187 14.8 21.7 0.00 0.00 0.00 54 1005.9
20260504220030 82 172 15.6 19.1 0.00 0.00 0.00 54 1006.1
20260504215500 82 194 14.8 19.1 0.00 0.00 0.00 53 1006.0
20260504215000 82 197 17.4 20.0 0.00 0.00 0.00 53 1006.1
20260504214500 81 161 18.2 21.7 0.00 0.00 0.00 53 1006.1
20260504214000 82 178 21.7 21.7 0.00 0.00 0.00 53 1006.1
20260504213530 82 171 9.6 18.2 0.00 0.00 0.00 55 1006.5
20260504213000 82 177 18.2 18.2 0.00 0.00 0.00 54 1006.4
20260504212500 81 189 10.4 18.2 0.00 0.00 0.00 55 1006.7
20260504212000 81 180 13.0 18.2 0.00 0.00 0.00 55 1006.8
20260504210500 80 206 13.9 19.1 0.00 0.00 0.00 55 1007.0
20260504210031 81 181 13.0 19.1 0.00 0.00 0.00 55 1007.1
20260504205502 81 185 11.3 18.2 0.00 0.00 0.00 55 1007.1
20260504205030 80 164 16.5 17.4 0.00 0.00 0.00 55 1007.2
20260504204500 80 188 12.2 20.0 0.00 0.00 0.00 55 1007.3
20260504204031 80 201 15.6 20.0 0.00 0.00 0.00 55 1007.5
20260504203500 80 197 13.0 20.0 0.00 0.00 0.00 56 1007.6
20260504202500 80 178 11.3 19.1 0.00 0.00 0.00 55 1007.9
20260504202000 80 209 15.6 19.1 0.00 0.00 0.00 55 1007.8
20260504201500 80 198 19.1 20.9 0.00 0.00 0.00 55 1007.8
20260504201030 80 173 10.4 20.9 0.00 0.00 0.00 55 1008.0
20260504200000 80 192 12.2 23.5 0.00 0.00 0.00 56 1008.1
20260504195500 79 209 18.2 20.9 0.00 0.00 0.00 56 1008.1
20260504195000 80 194 13.9 19.1 0.00 0.00 0.00 54 1008.5
20260504194000 79 221 19.1 20.0 0.00 0.00 0.00 56 1008.6
20260504193530 78 189 9.6 20.0 0.00 0.00 0.00 56 1008.7
20260504193030 79 212 13.0 24.3 0.00 0.00 0.00 56 1008.7
20260504192530 79 218 12.2 24.3 0.00 0.00 0.00 57 1009.0
20260504192000 78 199 10.4 18.2 0.00 0.00 0.00 56 1008.8
20260504191500 78 194 13.9 18.2 0.00 0.00 0.00 57 1008.8
20260504191030 78 192 8.7 21.7 0.00 0.00 0.00 58 1008.9
20260504190531 78 166 16.5 21.7 0.00 0.00 0.00 56 1009.0
20260504190001 77 165 11.3 17.4 0.00 0.00 0.00 58 1009.2
20260504185500 77 165 17.4 21.7 0.00 0.00 0.00 56 1009.3
20260504185030 78 186 9.6 26.1 0.00 0.00 0.00 58 1009.6
20260504184500 77 179 10.4 26.1 0.00 0.00 0.00 58 1009.4
20260504184000 77 184 13.9 19.1 0.00 0.00 0.00 56 1009.4
20260504183501 77 199 13.9 19.1 0.00 0.00 0.00 57 1009.6
20260504183001 77 170 8.7 23.5 0.00 0.00 0.00 58 1009.8
20260504182500 76 210 12.2 23.5 0.00 0.00 0.00 59 1009.8
20260504182000 77 206 13.0 22.6 0.00 0.00 0.00 58 1009.8
20260504181500 76 193 16.5 26.9 0.00 0.00 0.00 57 1009.9
20260504181002 76 220 25.2 26.9 0.00 0.00 0.00 58 1009.9
20260504180501 75 196 12.2 24.3 0.00 0.00 0.00 58 1010.1
20260504180000 75 203 12.2 21.7 0.00 0.00 0.00 60 1010.2
20260504175000 75 196 15.6 20.9 0.00 0.00 0.00 58 1010.4
20260504174501 75 197 13.0 20.9 0.00 0.00 0.00 59 1010.5
20260504173501 75 0 0.0 20.0 0.00 0.00 0.00 59 1010.4
20260504173000 75 185 12.2 17.4 0.00 0.00 0.00 61 1010.4
20260504172503 75 178 9.6 23.5 0.00 0.00 0.00 60 1010.6
20260504172000 74 202 11.3 23.5 0.00 0.00 0.00 60 1010.6
20260504171500 73 204 16.5 20.0 0.00 0.00 0.00 61 1010.7
20260504171000 73 212 16.5 20.0 0.00 0.00 0.00 62 1010.7
20260504170501 73 190 13.9 20.0 0.00 0.00 0.00 62 1010.8
20260504151030 70 210 18.2 21.7 0.00 0.00 0.00 62 1011.9
20260504150531 70 197 9.6 20.0 0.00 0.00 0.00 62 1012.0
20260504141000 67 202 9.6 18.2 0.00 0.00 0.00 70 1012.3
20260504140500 67 197 11.3 18.2 0.00 0.00 0.00 69 1012.2
20260504100501 62 186 3.5 11.3 0.00 0.00 0.00 70 1012.6
20260504081501 60 162 5.2 6.1 0.00 0.00 0.00 71 1013.2
20260504081001 60 186 5.2 5.2 0.00 0.00 0.00 71 1013.3
20260504080501 60 184 4.3 5.2 0.00 0.00 0.00 71 1013.3
20260504050502 63 196 3.5 5.2 0.00 0.00 0.00 61 1015.3
20260504050002 63 196 4.3 5.2 0.00 0.00 0.00 60 1015.3
20260504045002 63 196 3.5 6.1 0.00 0.00 0.00 60 1015.4
20260504044501 63 208 5.2 7.0 0.00 0.00 0.00 60 1015.4
20260504044001 64 213 5.2 7.0 0.00 0.00 0.00 59 1015.4
20260504043501 64 200 5.2 6.1 0.00 0.00 0.00 59 1015.5
20260504042501 64 204 4.3 5.2 0.00 0.00 0.00 58 1015.6
20260504042001 64 189 2.6 5.2 0.00 0.00 0.00 58 1015.6
20260504041001 64 203 3.5 5.2 0.00 0.00 0.00 57 1015.7
20260504040501 64 189 2.6 4.3 0.00 0.00 0.00 57 1015.7
20260504040031 65 195 2.6 6.1 0.00 0.00 0.00 56 1015.8
20260504035501 65 190 2.6 6.1 0.00 0.00 0.00 56 1015.8
20260504035001 65 189 3.5 4.3 0.00 0.00 0.00 56 1015.7
20260504034531 65 188 2.6 4.3 0.00 0.00 0.00 56 1015.7
20260504034001 65 177 2.6 4.3 0.00 0.00 0.00 56 1015.6
20260504033501 65 167 3.5 4.3 0.00 0.00 0.00 56 1015.6
20260504032531 65 184 2.6 4.3 0.00 0.00 0.00 56 1015.5
20260504032001 66 169 3.5 4.3 0.00 0.00 0.00 56 1015.5
20260504031501 66 165 3.5 4.3 0.00 0.00 0.00 55 1015.5
20260504031001 66 181 2.6 4.3 0.00 0.00 0.00 55 1015.5
20260504030532 66 171 3.5 4.3 0.00 0.00 0.00 54 1015.6
20260504030005 66 169 3.5 4.3 0.00 0.00 0.00 54 1015.5
20260504025533 66 177 2.6 4.3 0.00 0.00 0.00 53 1015.4
20260504025031 66 179 2.6 5.2 0.00 0.00 0.00 53 1015.4
20260504024501 66 155 3.5 5.2 0.00 0.00 0.00 53 1015.4
20260504024001 67 151 4.3 6.1 0.00 0.00 0.00 52 1015.3
20260504023501 67 157 4.3 6.1 0.00 0.00 0.00 52 1015.3
20260504023001 67 153 4.3 6.1 0.00 0.00 0.00 52 1015.3
20260504022501 67 143 5.2 6.1 0.00 0.00 0.00 51 1015.3
20260504022001 68 142 6.1 6.1 0.00 0.00 0.00 51 1015.3
20260504021501 68 153 4.3 7.8 0.00 0.00 0.00 50 1015.3
20260504021001 68 142 5.2 7.8 0.00 0.00 0.00 50 1015.3
20260504015501 69 149 5.2 7.0 0.00 0.00 0.00 49 1015.2
20260504015001 69 148 5.2 6.1 0.00 0.00 0.00 49 1015.2
20260504014501 69 148 4.3 6.1 0.00 0.00 0.00 48 1015.2
20260504014001 69 157 6.1 6.1 0.00 0.00 0.00 47 1015.1
20260504013501 70 149 5.2 6.1 0.00 0.00 0.00 47 1015.1
20260504011501 72 175 4.3 6.1 0.00 0.00 0.00 42 1014.9
20260504011002 72 180 4.3 7.0 0.00 0.00 0.00 42 1014.9
20260504010501 73 187 5.2 7.8 0.00 0.00 0.00 41 1014.9
20260504005001 74 186 5.2 7.0 0.00 0.00 0.00 39 1014.8
20260504004501 74 163 3.5 7.8 0.00 0.00 0.00 39 1014.8
20260504004001 75 197 6.1 8.7 0.00 0.00 0.00 38 1014.8
20260504003501 75 186 6.1 8.7 0.00 0.00 0.00 37 1014.8
20260504003001 76 205 7.8 8.7 0.00 0.00 0.00 36 1014.9
20260504002001 77 200 7.8 11.3 0.00 0.00 0.00 34 1014.8
20260504001501 77 203 10.4 11.3 0.00 0.00 0.00 34 1014.9
20260504001001 77 204 8.7 11.3 0.00 0.00 0.00 33 1015.0
20260504000501 78 203 7.0 11.3 0.00 0.00 0.00 34 1015.0
20260504000001 78 202 8.7 11.3 0.00 0.00 0.00 34 1015.0
20260503235002 78 205 6.1 14.8 0.00 0.00 0.00 35 1015.1
20260503234001 78 208 10.4 14.8 0.00 0.00 0.00 32 1015.0